Time,TemperatureF,DewpointF,PressureIn,WindDirection,WindDirectionDegrees,WindSpeedMPH,WindSpeedGustMPH,Humidity,HourlyPrecipIn,Conditions,Clouds,dailyrainin,SoftwareType,DateUTC
2013-07-13 00:00:00,88.2,55.5,29.29,NW,318,2.5,3.6,33,0.00,,FEW,0.00,VWS V14.00,2013-07-13 07:00:00,
2013-07-13 00:02:00,89.1,57.1,29.29,West,272,2.9,2.9,34,0.00,,FEW,0.00,VWS V14.00,2013-07-13 07:02:00,
2013-07-13 00:03:00,89.2,57.2,29.29,NW,318,2.9,5.4,34,0.00,,FEW,0.00,VWS V14.00,2013-07-13 07:03:00,
2013-07-13 00:04:00,89.4,57.4,29.29,North,2,2.2,3.6,34,0.00,,FEW,0.00,VWS V14.00,2013-07-13 07:04:00,
2013-07-13 00:05:00,89.6,56.7,29.29,NE,48,2.9,3.1,33,0.00,,FEW,0.00,VWS V14.00,2013-07-13 07:05:00,
2013-07-13 00:06:00,89.6,56.7,29.29,West,272,7.8,7.8,33,0.00,,FEW,0.00,VWS V14.00,2013-07-13 07:06:00,
2013-07-13 00:07:00,89.4,56.6,29.29,West,272,3.1,7.8,33,0.00,,FEW,0.00,VWS V14.00,2013-07-13 07:07:00,
2013-07-13 00:08:00,89.6,56.7,29.29,NW,318,4.3,4.3,33,0.00,,FEW,0.00,VWS V14.00,2013-07-13 07:08:00,
2013-07-13 00:09:00,89.4,57.4,29.32,NW,318,4.9,7.8,34,0.00,,FEW,0.00,VWS V14.00,2013-07-13 07:09:00,
2013-07-13 00:10:00,89.1,57.1,29.32,North,2,4.0,4.9,34,0.00,,FEW,0.00,VWS V14.00,2013-07-13 07:10:00,
2013-07-13 00:11:00,89.6,57.5,29.32,NW,318,3.4,4.0,34,0.00,,FEW,0.00,VWS V14.00,2013-07-13 07:11:00,
2013-07-13 00:12:00,90.0,57.0,29.32,West,272,2.5,3.4,33,0.00,,FEW,0.00,VWS V14.00,2013-07-13 07:12:00,
2013-07-13 00:14:00,90.1,58.0,29.32,West,272,1.6,3.8,34,0.00,,FEW,0.00,VWS V14.00,2013-07-13 07:14:00,
2013-07-13 00:15:00,90.7,57.7,29.32,West,272,4.0,4.0,33,0.00,,FEW,0.00,VWS V14.00,2013-07-13 07:15:00,
2013-07-13 00:16:00,90.7,57.7,29.32,SSW,205,2.5,4.0,33,0.00,,FEW,0.00,VWS V14.00,2013-07-13 07:16:00,
2013-07-13 00:17:00,90.7,57.7,29.32,NW,318,4.0,4.0,33,0.00,,FEW,0.00,VWS V14.00,2013-07-13 07:17:00,
2013-07-13 00:18:00,91.4,57.4,29.32,NW,318,1.1,4.0,32,0.00,,FEW,0.00,VWS V14.00,2013-07-13 07:18:00,
2013-07-13 00:19:00,91.2,57.3,29.32,NW,318,2.7,3.4,32,0.00,,FEW,0.00,VWS V14.00,2013-07-13 07:19:00,
2013-07-13 00:20:00,91.2,57.3,29.32,West,272,3.4,4.0,32,0.00,,FEW,0.00,VWS V14.00,2013-07-13 07:20:00,
2013-07-13 00:21:00,91.0,57.1,29.32,NW,318,3.4,3.8,32,0.00,,FEW,0.00,VWS V14.00,2013-07-13 07:21:00,
2013-07-13 00:22:00,90.9,57.0,29.32,North,2,2.0,3.8,32,0.00,,FEW,0.00,VWS V14.00,2013-07-13 07:22:00,
2013-07-13 00:23:00,91.0,57.1,29.32,ENE,70,2.2,2.2,32,0.00,,FEW,0.00,VWS V14.00,2013-07-13 07:23:00,
2013-07-13 00:24:00,91.2,57.3,29.29,West,272,0.9,2.2,32,0.00,,FEW,0.00,VWS V14.00,2013-07-13 07:24:00,
2013-07-13 00:25:00,91.2,57.3,29.29,WSW,250,2.7,2.9,32,0.00,,FEW,0.00,VWS V14.00,2013-07-13 07:25:00,
2013-07-13 00:26:00,91.6,57.6,29.29,West,272,2.5,2.7,32,0.00,,FEW,0.00,VWS V14.00,2013-07-13 07:26:00,
2013-07-13 00:27:00,91.4,57.4,29.29,NW,318,2.7,2.9,32,0.00,,FEW,0.00,VWS V14.00,2013-07-13 07:27:00,
2013-07-13 00:28:00,91.2,56.4,29.29,North,2,2.5,3.1,31,0.00,,FEW,0.00,VWS V14.00,2013-07-13 07:28:00,
2013-07-13 00:29:00,91.2,57.3,29.29,SW,228,2.5,2.5,32,0.00,,FEW,0.00,VWS V14.00,2013-07-13 07:29:00,
2013-07-13 00:30:00,91.0,56.2,29.29,SW,228,1.3,3.8,31,0.00,,FEW,0.00,VWS V14.00,2013-07-13 07:30:00,
2013-07-13 00:31:00,90.9,56.1,29.29,West,272,4.0,4.3,31,0.00,,FEW,0.00,VWS V14.00,2013-07-13 07:31:00,
2013-07-13 00:32:00,90.5,55.8,29.29,NW,318,1.3,4.0,31,0.00,,FEW,0.00,VWS V14.00,2013-07-13 07:32:00,
2013-07-13 00:33:00,90.7,56.8,29.29,NW,318,2.0,3.1,32,0.00,,FEW,0.00,VWS V14.00,2013-07-13 07:33:00,
2013-07-13 00:34:00,90.7,56.8,29.29,NW,318,3.4,3.4,32,0.00,,FEW,0.00,VWS V14.00,2013-07-13 07:34:00,
2013-07-13 00:35:00,90.9,57.0,29.29,NNW,340,2.5,3.8,32,0.00,,FEW,0.00,VWS V14.00,2013-07-13 07:35:00,
2013-07-13 00:36:00,91.0,57.1,29.29,NW,318,2.0,3.4,32,0.00,,FEW,0.00,VWS V14.00,2013-07-13 07:36:00,
2013-07-13 00:37:00,91.0,57.1,29.29,East,92,2.2,2.9,32,0.00,,FEW,0.00,VWS V14.00,2013-07-13 07:37:00,
2013-07-13 00:38:00,91.0,57.1,29.29,East,92,2.5,2.5,32,0.00,,FEW,0.00,VWS V14.00,2013-07-13 07:38:00,
2013-07-13 00:39:00,91.4,56.5,29.29,West,272,1.1,2.5,31,0.00,,FEW,0.00,VWS V14.00,2013-07-13 07:39:00,
2013-07-13 00:40:00,91.6,57.6,29.29,NW,318,1.6,4.0,32,0.00,,FEW,0.00,VWS V14.00,2013-07-13 07:40:00,
2013-07-13 00:41:00,91.6,57.6,29.29,West,272,1.3,3.4,32,0.00,,FEW,0.00,VWS V14.00,2013-07-13 07:41:00,
2013-07-13 00:42:00,91.6,56.7,29.29,NNW,340,2.9,4.3,31,0.00,,FEW,0.00,VWS V14.00,2013-07-13 07:42:00,
2013-07-13 00:43:00,91.6,56.7,29.29,WNW,295,2.7,3.6,31,0.00,,FEW,0.00,VWS V14.00,2013-07-13 07:43:00,
2013-07-13 00:44:00,91.6,56.7,29.29,West,272,2.0,2.7,31,0.00,,FEW,0.00,VWS V14.00,2013-07-13 07:44:00,
2013-07-13 00:45:00,91.6,56.7,29.29,West,272,2.9,2.9,31,0.00,,FEW,0.00,VWS V14.00,2013-07-13 07:45:00,
2013-07-13 00:46:00,91.6,56.7,29.29,ESE,115,2.0,2.9,31,0.00,,FEW,0.00,VWS V14.00,2013-07-13 07:46:00,
2013-07-13 00:47:00,91.4,56.5,29.29,NW,318,2.0,2.0,31,0.00,,FEW,0.00,VWS V14.00,2013-07-13 07:47:00,
2013-07-13 00:48:00,91.6,56.7,29.29,NNW,340,1.3,2.7,31,0.00,,FEW,0.00,VWS V14.00,2013-07-13 07:48:00,
2013-07-13 00:49:00,91.8,56.8,29.29,West,272,2.5,2.5,31,0.00,,FEW,0.00,VWS V14.00,2013-07-13 07:49:00,
2013-07-13 00:50:00,91.8,56.8,29.29,NNW,340,1.3,2.7,31,0.00,,FEW,0.00,VWS V14.00,2013-07-13 07:50:00,
2013-07-13 00:51:00,91.9,57.0,29.29,NW,318,2.7,2.7,31,0.00,,FEW,0.00,VWS V14.00,2013-07-13 07:51:00,
2013-07-13 00:52:00,91.6,56.7,29.29,NE,48,2.7,2.9,31,0.00,,FEW,0.00,VWS V14.00,2013-07-13 07:52:00,
2013-07-13 00:53:00,91.4,56.5,29.29,West,272,2.9,2.9,31,0.00,,FEW,0.00,VWS V14.00,2013-07-13 07:53:00,
2013-07-13 00:54:00,91.2,56.4,29.29,NW,318,3.6,3.6,31,0.00,,FEW,0.00,VWS V14.00,2013-07-13 07:54:00,
2013-07-13 00:55:00,91.0,56.2,29.29,NNW,340,1.6,3.6,31,0.00,,FEW,0.00,VWS V14.00,2013-07-13 07:55:00,
2013-07-13 00:56:00,91.0,56.2,29.29,NW,318,3.8,3.8,31,0.00,,FEW,0.00,VWS V14.00,2013-07-13 07:56:00,
2013-07-13 00:57:00,90.9,56.1,29.29,NW,318,1.3,4.7,31,0.00,,FEW,0.00,VWS V14.00,2013-07-13 07:57:00,
2013-07-13 00:58:00,91.0,57.1,29.29,NW,318,2.2,2.2,32,0.00,,FEW,0.00,VWS V14.00,2013-07-13 07:58:00,
2013-07-13 00:59:00,91.2,57.3,29.29,WNW,295,2.0,3.1,32,0.00,,FEW,0.00,VWS V14.00,2013-07-13 07:59:00,
2013-07-13 01:00:00,91.6,56.7,29.29,NW,318,1.3,2.0,31,0.00,,FEW,0.00,VWS V14.00,2013-07-13 08:00:00,
2013-07-13 01:01:00,91.6,56.7,29.29,WNW,295,1.1,6.0,31,0.00,,FEW,0.00,VWS V14.00,2013-07-13 08:01:00,
2013-07-13 01:02:00,91.4,55.6,29.29,North,2,2.9,5.6,30,0.00,,FEW,0.00,VWS V14.00,2013-07-13 08:02:00,
2013-07-13 01:03:00,91.6,56.7,29.29,NNW,340,3.6,3.6,31,0.00,,FEW,0.00,VWS V14.00,2013-07-13 08:03:00,
2013-07-13 01:04:00,91.4,56.5,29.29,NW,318,4.0,4.0,31,0.00,,FEW,0.00,VWS V14.00,2013-07-13 08:04:00,
2013-07-13 01:05:00,91.2,56.4,29.29,WSW,250,3.1,5.6,31,0.00,,FEW,0.00,VWS V14.00,2013-07-13 08:05:00,
2013-07-13 01:06:00,91.2,56.4,29.29,NW,318,5.8,5.8,31,0.00,,FEW,0.00,VWS V14.00,2013-07-13 08:06:00,
2013-07-13 01:07:00,90.1,55.5,29.29,NW,318,4.0,5.8,31,0.00,,FEW,0.00,VWS V14.00,2013-07-13 08:07:00,
2013-07-13 01:08:00,90.1,55.5,29.29,NW,318,1.1,4.0,31,0.00,,FEW,0.00,VWS V14.00,2013-07-13 08:08:00,
2013-07-13 01:09:00,90.1,55.5,29.26,NW,318,2.9,3.1,31,0.00,,FEW,0.00,VWS V14.00,2013-07-13 08:09:00,
2013-07-13 01:10:00,90.3,55.6,29.26,NW,318,2.7,3.8,31,0.00,,FEW,0.00,VWS V14.00,2013-07-13 08:10:00,
2013-07-13 01:11:00,90.5,56.6,29.26,NNW,340,2.9,2.9,32,0.00,,FEW,0.00,VWS V14.00,2013-07-13 08:11:00,
2013-07-13 01:12:00,90.5,56.6,29.26,West,272,2.7,4.9,32,0.00,,FEW,0.00,VWS V14.00,2013-07-13 08:12:00,
2013-07-13 01:13:00,90.1,55.5,29.26,NW,318,3.6,5.4,31,0.00,,FEW,0.00,VWS V14.00,2013-07-13 08:13:00,
2013-07-13 01:14:00,89.4,54.8,29.26,NW,318,6.5,6.5,31,0.00,,FEW,0.00,VWS V14.00,2013-07-13 08:14:00,
2013-07-13 01:15:00,89.4,55.7,29.26,NW,318,4.0,6.5,32,0.00,,FEW,0.00,VWS V14.00,2013-07-13 08:15:00,
2013-07-13 01:16:00,89.4,55.7,29.26,NNW,340,3.6,4.0,32,0.00,,FEW,0.00,VWS V14.00,2013-07-13 08:16:00,
2013-07-13 01:17:00,89.4,55.7,29.26,North,2,3.8,3.8,32,0.00,,FEW,0.00,VWS V14.00,2013-07-13 08:17:00,
2013-07-13 01:18:00,89.6,55.9,29.26,SW,228,2.0,3.8,32,0.00,,FEW,0.00,VWS V14.00,2013-07-13 08:18:00,
2013-07-13 01:20:00,89.8,56.0,29.26,West,272,3.6,3.6,32,0.00,,FEW,0.00,VWS V14.00,2013-07-13 08:20:00,
2013-07-13 01:21:00,90.3,56.5,29.26,North,2,1.6,3.8,32,0.00,,FEW,0.00,VWS V14.00,2013-07-13 08:21:00,
2013-07-13 01:22:00,90.1,56.3,29.26,NW,318,3.1,7.2,32,0.00,,FEW,0.00,VWS V14.00,2013-07-13 08:22:00,
2013-07-13 01:23:00,90.1,56.3,29.26,North,2,2.0,8.5,32,0.00,,FEW,0.00,VWS V14.00,2013-07-13 08:23:00,
2013-07-13 01:24:00,89.8,56.0,29.26,West,272,2.5,2.5,32,0.00,,FEW,0.00,VWS V14.00,2013-07-13 08:24:00,
2013-07-13 01:25:00,90.0,56.2,29.26,NNW,340,4.0,4.7,32,0.00,,FEW,0.00,VWS V14.00,2013-07-13 08:25:00,
2013-07-13 01:26:00,90.1,56.3,29.26,NW,318,2.5,4.9,32,0.00,,FEW,0.00,VWS V14.00,2013-07-13 08:26:00,
2013-07-13 01:27:00,90.1,56.3,29.26,NW,318,2.9,2.9,32,0.00,,FEW,0.00,VWS V14.00,2013-07-13 08:27:00,
2013-07-13 01:28:00,90.3,56.5,29.26,NE,48,2.5,2.9,32,0.00,,FEW,0.00,VWS V14.00,2013-07-13 08:28:00,
2013-07-13 01:29:00,90.3,55.6,29.26,West,272,4.0,4.0,31,0.00,,FEW,0.00,VWS V14.00,2013-07-13 08:29:00,
2013-07-13 01:30:00,90.3,55.6,29.26,NNW,340,5.4,5.4,31,0.00,,FEW,0.00,VWS V14.00,2013-07-13 08:30:00,
2013-07-13 01:31:00,90.0,55.3,29.26,NW,318,6.0,6.0,31,0.00,,FEW,0.00,VWS V14.00,2013-07-13 08:31:00,
2013-07-13 01:32:00,89.2,55.5,29.26,NW,318,2.0,6.5,32,0.00,,FEW,0.00,VWS V14.00,2013-07-13 08:32:00,
2013-07-13 01:33:00,89.2,55.5,29.26,NNW,340,1.6,4.0,32,0.00,,FEW,0.00,VWS V14.00,2013-07-13 08:33:00,
2013-07-13 01:34:00,89.6,55.9,29.26,NW,318,2.7,3.6,32,0.00,,FEW,0.00,VWS V14.00,2013-07-13 08:34:00,
2013-07-13 01:35:00,89.8,56.0,29.26,NNE,25,2.9,3.8,32,0.00,,FEW,0.00,VWS V14.00,2013-07-13 08:35:00,
2013-07-13 01:36:00,89.8,55.2,29.26,NNW,340,2.9,2.9,31,0.00,,FEW,0.00,VWS V14.00,2013-07-13 08:36:00,
2013-07-13 01:37:00,89.8,55.2,29.26,NW,318,2.5,3.1,31,0.00,,FEW,0.00,VWS V14.00,2013-07-13 08:37:00,
2013-07-13 01:38:00,89.8,56.0,29.26,North,2,2.9,2.9,32,0.00,,FEW,0.00,VWS V14.00,2013-07-13 08:38:00,
2013-07-13 01:39:00,89.8,56.0,29.26,NW,318,5.4,5.4,32,0.00,,FEW,0.00,VWS V14.00,2013-07-13 08:39:00,
2013-07-13 01:40:00,89.6,55.9,29.26,WNW,295,2.2,5.4,32,0.00,,FEW,0.00,VWS V14.00,2013-07-13 08:40:00,
2013-07-13 01:41:00,89.4,55.7,29.26,NNW,340,2.5,3.6,32,0.00,,FEW,0.00,VWS V14.00,2013-07-13 08:41:00,
2013-07-13 01:42:00,89.4,55.7,29.26,NNE,25,2.5,2.5,32,0.00,,FEW,0.00,VWS V14.00,2013-07-13 08:42:00,
2013-07-13 01:43:00,89.6,55.9,29.26,ENE,70,1.6,2.5,32,0.00,,FEW,0.00,VWS V14.00,2013-07-13 08:43:00,
2013-07-13 01:44:00,89.6,55.9,29.26,NW,318,4.3,4.3,32,0.00,,FEW,0.00,VWS V14.00,2013-07-13 08:44:00,
2013-07-13 01:45:00,89.6,55.9,29.26,NW,318,4.3,4.3,32,0.00,,FEW,0.00,VWS V14.00,2013-07-13 08:45:00,
2013-07-13 01:46:00,89.6,55.9,29.26,West,272,5.4,5.4,32,0.00,,FEW,0.00,VWS V14.00,2013-07-13 08:46:00,
2013-07-13 01:47:00,89.6,55.9,29.26,NW,318,3.8,5.4,32,0.00,,FEW,0.00,VWS V14.00,2013-07-13 08:47:00,
2013-07-13 01:48:00,89.6,55.9,29.26,NNW,340,3.6,3.8,32,0.00,,FEW,0.00,VWS V14.00,2013-07-13 08:48:00,
2013-07-13 01:49:00,89.1,55.4,29.26,NW,318,3.1,8.1,32,0.00,,FEW,0.00,VWS V14.00,2013-07-13 08:49:00,
2013-07-13 01:50:00,89.2,55.5,29.26,South,182,2.9,3.1,32,0.00,,FEW,0.00,VWS V14.00,2013-07-13 08:50:00,
2013-07-13 01:51:00,89.2,55.5,29.26,NNW,340,5.6,5.6,32,0.00,,FEW,0.00,VWS V14.00,2013-07-13 08:51:00,
2013-07-13 01:52:00,89.1,55.4,29.26,NW,318,3.8,10.3,32,0.00,,FEW,0.00,VWS V14.00,2013-07-13 08:52:00,
2013-07-13 01:53:00,89.1,55.4,29.26,NW,318,4.3,4.3,32,0.00,,FEW,0.00,VWS V14.00,2013-07-13 08:53:00,
2013-07-13 01:54:00,88.7,55.1,29.26,NW,318,2.5,4.9,32,0.00,,FEW,0.00,VWS V14.00,2013-07-13 08:54:00,
2013-07-13 01:55:00,88.9,55.2,29.26,NW,318,1.3,3.8,32,0.00,,FEW,0.00,VWS V14.00,2013-07-13 08:55:00,
2013-07-13 01:56:00,89.1,55.4,29.26,NNW,340,2.7,4.3,32,0.00,,FEW,0.00,VWS V14.00,2013-07-13 08:56:00,
2013-07-13 01:57:00,89.6,55.9,29.26,NW,318,2.5,3.1,32,0.00,,FEW,0.00,VWS V14.00,2013-07-13 08:57:00,
2013-07-13 01:58:00,89.4,55.7,29.26,North,2,4.9,6.5,32,0.00,,FEW,0.00,VWS V14.00,2013-07-13 08:58:00,
2013-07-13 01:59:00,88.9,55.2,29.26,NW,318,5.8,6.0,32,0.00,,FEW,0.00,VWS V14.00,2013-07-13 08:59:00,
2013-07-13 02:00:00,88.5,54.9,29.26,NW,318,4.3,5.8,32,0.00,,FEW,0.00,VWS V14.00,2013-07-13 09:00:00,
2013-07-13 02:01:00,88.3,54.8,29.26,North,2,5.6,6.3,32,0.00,,FEW,0.00,VWS V14.00,2013-07-13 09:01:00,
2013-07-13 02:02:00,88.0,54.5,29.26,West,272,3.8,6.9,32,0.00,,FEW,0.00,VWS V14.00,2013-07-13 09:02:00,
2013-07-13 02:03:00,87.8,54.3,29.26,NW,318,4.0,6.0,32,0.00,,FEW,0.00,VWS V14.00,2013-07-13 09:03:00,
2013-07-13 02:04:00,88.2,54.6,29.26,WSW,250,4.0,4.0,32,0.00,,FEW,0.00,VWS V14.00,2013-07-13 09:04:00,
2013-07-13 02:05:00,88.2,54.6,29.26,North,2,1.6,4.0,32,0.00,,FEW,0.00,VWS V14.00,2013-07-13 09:05:00,
2013-07-13 02:06:00,89.1,56.2,29.26,NNW,340,1.1,2.2,33,0.00,,FEW,0.00,VWS V14.00,2013-07-13 09:06:00,
2013-07-13 02:07:00,89.2,55.5,29.26,NNE,25,4.0,4.0,32,0.00,,FEW,0.00,VWS V14.00,2013-07-13 09:07:00,
2013-07-13 02:09:00,89.2,55.5,29.26,NW,318,2.5,4.0,32,0.00,,FEW,0.00,VWS V14.00,2013-07-13 09:09:00,
2013-07-13 02:10:00,89.2,55.5,29.26,WNW,295,2.9,2.9,32,0.00,,FEW,0.00,VWS V14.00,2013-07-13 09:10:00,
2013-07-13 02:11:00,89.2,55.5,29.26,NW,318,4.9,4.9,32,0.00,,FEW,0.00,VWS V14.00,2013-07-13 09:11:00,
2013-07-13 02:12:00,89.1,55.4,29.26,NW,318,2.0,8.1,32,0.00,,FEW,0.00,VWS V14.00,2013-07-13 09:12:00,
2013-07-13 02:13:00,89.1,55.4,29.26,NW,318,2.0,2.7,32,0.00,,FEW,0.00,VWS V14.00,2013-07-13 09:13:00,
2013-07-13 02:14:00,89.2,55.5,29.26,West,272,3.1,3.1,32,0.00,,FEW,0.00,VWS V14.00,2013-07-13 09:14:00,
2013-07-13 02:15:00,89.4,55.7,29.26,West,272,3.4,4.7,32,0.00,,FEW,0.00,VWS V14.00,2013-07-13 09:15:00,
2013-07-13 02:16:00,89.6,55.9,29.26,NNW,340,1.3,4.3,32,0.00,,FEW,0.00,VWS V14.00,2013-07-13 09:16:00,
2013-07-13 02:17:00,89.6,55.9,29.26,NNW,340,1.1,2.9,32,0.00,,FEW,0.00,VWS V14.00,2013-07-13 09:17:00,
2013-07-13 02:18:00,89.6,55.9,29.26,West,272,1.3,1.6,32,0.00,,FEW,0.00,VWS V14.00,2013-07-13 09:18:00,
2013-07-13 02:19:00,90.0,56.2,29.26,NW,318,0.9,1.3,32,0.00,,FEW,0.00,VWS V14.00,2013-07-13 09:19:00,
2013-07-13 02:20:00,89.8,56.0,29.26,NW,318,2.0,2.5,32,0.00,,FEW,0.00,VWS V14.00,2013-07-13 09:20:00,
2013-07-13 02:21:00,89.8,56.0,29.26,NW,318,2.0,2.0,32,0.00,,FEW,0.00,VWS V14.00,2013-07-13 09:21:00,
2013-07-13 02:22:00,89.8,56.0,29.26,NNW,340,1.6,2.0,32,0.00,,FEW,0.00,VWS V14.00,2013-07-13 09:22:00,
2013-07-13 02:23:00,88.7,55.9,29.26,NW,318,2.5,2.5,33,0.00,,FEW,0.00,VWS V14.00,2013-07-13 09:23:00,
2013-07-13 02:24:00,88.2,55.5,29.26,NW,318,2.9,4.3,33,0.00,,FEW,0.00,VWS V14.00,2013-07-13 09:24:00,
2013-07-13 02:25:00,87.6,55.0,29.26,NW,318,1.3,2.9,33,0.00,,FEW,0.00,VWS V14.00,2013-07-13 09:25:00,
2013-07-13 02:26:00,87.3,54.7,29.26,North,2,1.3,2.2,33,0.00,,FEW,0.00,VWS V14.00,2013-07-13 09:26:00,
2013-07-13 02:27:00,87.4,55.7,29.26,North,2,2.5,2.7,34,0.00,,FEW,0.00,VWS V14.00,2013-07-13 09:27:00,
2013-07-13 02:28:00,87.6,55.8,29.26,NNW,340,2.5,2.7,34,0.00,,FEW,0.00,VWS V14.00,2013-07-13 09:28:00,
2013-07-13 02:29:00,87.6,55.8,29.26,North,2,2.2,3.4,34,0.00,,FEW,0.00,VWS V14.00,2013-07-13 09:29:00,
2013-07-13 02:30:00,87.8,55.2,29.26,NW,318,2.9,3.8,33,0.00,,FEW,0.00,VWS V14.00,2013-07-13 09:30:00,
2013-07-13 02:31:00,87.6,55.8,29.26,NNW,340,2.7,3.4,34,0.00,,FEW,0.00,VWS V14.00,2013-07-13 09:31:00,
2013-07-13 02:32:00,87.6,55.8,29.26,NNW,340,1.6,3.4,34,0.00,,FEW,0.00,VWS V14.00,2013-07-13 09:32:00,
2013-07-13 02:33:00,87.6,55.8,29.26,NW,318,3.1,3.1,34,0.00,,FEW,0.00,VWS V14.00,2013-07-13 09:33:00,
2013-07-13 02:34:00,88.0,55.3,29.26,West,272,1.3,3.1,33,0.00,,FEW,0.00,VWS V14.00,2013-07-13 09:34:00,
2013-07-13 02:35:00,88.2,55.5,29.26,North,2,2.0,2.0,33,0.00,,FEW,0.00,VWS V14.00,2013-07-13 09:35:00,
2013-07-13 02:36:00,88.2,55.5,29.26,ESE,115,2.0,2.0,33,0.00,,FEW,0.00,VWS V14.00,2013-07-13 09:36:00,
2013-07-13 02:37:00,88.3,56.4,29.26,North,2,1.3,2.0,34,0.00,,FEW,0.00,VWS V14.00,2013-07-13 09:37:00,
2013-07-13 02:38:00,88.5,57.4,29.26,NNE,25,2.0,2.0,35,0.00,,FEW,0.00,VWS V14.00,2013-07-13 09:38:00,
2013-07-13 02:39:00,88.5,56.6,29.26,NW,318,2.5,2.9,34,0.00,,FEW,0.00,VWS V14.00,2013-07-13 09:39:00,
2013-07-13 02:40:00,88.5,56.6,29.26,NW,318,2.7,2.7,34,0.00,,FEW,0.00,VWS V14.00,2013-07-13 09:40:00,
2013-07-13 02:41:00,88.5,56.6,29.26,North,2,2.2,4.0,34,0.00,,FEW,0.00,VWS V14.00,2013-07-13 09:41:00,
2013-07-13 02:42:00,88.5,56.6,29.26,NE,48,2.2,2.2,34,0.00,,FEW,0.00,VWS V14.00,2013-07-13 09:42:00,
2013-07-13 02:43:00,88.5,56.6,29.26,NW,318,6.3,6.3,34,0.00,,FEW,0.00,VWS V14.00,2013-07-13 09:43:00,
2013-07-13 02:44:00,88.5,56.6,29.26,NW,318,1.6,6.3,34,0.00,,FEW,0.00,VWS V14.00,2013-07-13 09:44:00,
2013-07-13 02:45:00,88.5,56.6,29.26,NW,318,1.6,1.6,34,0.00,,FEW,0.00,VWS V14.00,2013-07-13 09:45:00,
2013-07-13 02:46:00,88.3,56.4,29.26,NE,48,2.0,2.2,34,0.00,,FEW,0.00,VWS V14.00,2013-07-13 09:46:00,
2013-07-13 02:47:00,88.5,56.6,29.26,NW,318,2.7,2.7,34,0.00,,FEW,0.00,VWS V14.00,2013-07-13 09:47:00,
2013-07-13 02:48:00,88.3,56.4,29.26,East,92,1.3,4.3,34,0.00,,FEW,0.00,VWS V14.00,2013-07-13 09:48:00,
2013-07-13 02:49:00,88.3,56.4,29.26,NW,318,2.5,2.9,34,0.00,,FEW,0.00,VWS V14.00,2013-07-13 09:49:00,
2013-07-13 02:50:00,88.3,56.4,29.26,NE,48,2.0,2.5,34,0.00,,FEW,0.00,VWS V14.00,2013-07-13 09:50:00,
2013-07-13 02:51:00,88.2,56.3,29.26,North,2,1.3,2.9,34,0.00,,FEW,0.00,VWS V14.00,2013-07-13 09:51:00,
2013-07-13 02:52:00,88.2,57.1,29.26,WSW,250,1.3,3.1,35,0.00,,FEW,0.00,VWS V14.00,2013-07-13 09:52:00,
2013-07-13 02:53:00,88.2,56.3,29.26,NE,48,1.6,2.9,34,0.00,,FEW,0.00,VWS V14.00,2013-07-13 09:53:00,
2013-07-13 02:54:00,88.2,56.3,29.26,NW,318,2.9,2.9,34,0.00,,FEW,0.00,VWS V14.00,2013-07-13 09:54:00,
2013-07-13 02:55:00,88.0,56.1,29.26,NE,48,1.6,2.9,34,0.00,,FEW,0.00,VWS V14.00,2013-07-13 09:55:00,
2013-07-13 02:56:00,88.0,56.1,29.26,North,2,2.7,3.4,34,0.00,,FEW,0.00,VWS V14.00,2013-07-13 09:56:00,
2013-07-13 02:57:00,88.0,56.1,29.26,WSW,250,1.3,2.7,34,0.00,,FEW,0.00,VWS V14.00,2013-07-13 09:57:00,
2013-07-13 02:58:00,88.0,55.3,29.26,ENE,70,2.7,2.9,33,0.00,,FEW,0.00,VWS V14.00,2013-07-13 09:58:00,
2013-07-13 02:59:00,88.0,55.3,29.26,NNE,25,1.6,2.7,33,0.00,,FEW,0.00,VWS V14.00,2013-07-13 09:59:00,
2013-07-13 03:00:00,88.0,56.1,29.26,NW,318,2.9,2.9,34,0.00,,FEW,0.00,VWS V14.00,2013-07-13 10:00:00,
2013-07-13 03:01:00,87.8,56.0,29.26,NNW,340,2.7,2.9,34,0.00,,FEW,0.00,VWS V14.00,2013-07-13 10:01:00,
2013-07-13 03:02:00,87.8,56.0,29.26,North,2,2.7,2.7,34,0.00,,FEW,0.00,VWS V14.00,2013-07-13 10:02:00,
2013-07-13 03:03:00,87.8,56.0,29.26,WNW,295,1.3,3.6,34,0.00,,FEW,0.00,VWS V14.00,2013-07-13 10:03:00,
2013-07-13 03:04:00,87.8,56.0,29.26,SW,228,0.9,1.3,34,0.00,,FEW,0.00,VWS V14.00,2013-07-13 10:04:00,
2013-07-13 03:05:00,87.6,55.8,29.26,NW,318,2.9,3.1,34,0.00,,FEW,0.00,VWS V14.00,2013-07-13 10:05:00,
2013-07-13 03:06:00,87.6,55.8,29.26,North,2,1.3,2.9,34,0.00,,FEW,0.00,VWS V14.00,2013-07-13 10:06:00,
2013-07-13 03:07:00,87.6,55.8,29.26,West,272,2.0,2.2,34,0.00,,FEW,0.00,VWS V14.00,2013-07-13 10:07:00,
2013-07-13 03:09:00,87.6,55.8,29.26,West,272,2.0,2.0,34,0.00,,FEW,0.00,VWS V14.00,2013-07-13 10:09:00,
2013-07-13 03:10:00,87.3,54.7,29.26,West,272,2.5,3.1,33,0.00,,FEW,0.00,VWS V14.00,2013-07-13 10:10:00,
2013-07-13 03:11:00,87.3,54.7,29.26,NW,318,1.1,2.7,33,0.00,,FEW,0.00,VWS V14.00,2013-07-13 10:11:00,
2013-07-13 03:12:00,86.9,55.2,29.26,NW,318,4.3,4.3,34,0.00,,FEW,0.00,VWS V14.00,2013-07-13 10:12:00,
2013-07-13 03:14:00,86.4,53.9,29.26,NNE,25,0.0,7.8,33,0.00,,FEW,0.00,VWS V14.00,2013-07-13 10:14:00,
2013-07-13 03:15:00,86.4,55.5,29.26,North,2,3.4,3.4,35,0.00,,FEW,0.00,VWS V14.00,2013-07-13 10:15:00,
2013-07-13 03:16:00,86.4,55.5,29.26,NW,318,3.1,7.6,35,0.00,,FEW,0.00,VWS V14.00,2013-07-13 10:16:00,
2013-07-13 03:17:00,86.0,54.4,29.26,West,272,3.6,5.6,34,0.00,,FEW,0.00,VWS V14.00,2013-07-13 10:17:00,
2013-07-13 03:18:00,85.8,54.2,29.26,NW,318,2.0,3.6,34,0.00,,FEW,0.00,VWS V14.00,2013-07-13 10:18:00,
2013-07-13 03:19:00,85.8,54.2,29.26,NW,318,2.7,3.4,34,0.00,,FEW,0.00,VWS V14.00,2013-07-13 10:19:00,
2013-07-13 03:20:00,85.6,54.9,29.26,West,272,1.6,6.5,35,0.00,,FEW,0.00,VWS V14.00,2013-07-13 10:20:00,
2013-07-13 03:21:00,85.6,54.9,29.26,NW,318,3.1,3.1,35,0.00,,FEW,0.00,VWS V14.00,2013-07-13 10:21:00,
2013-07-13 03:22:00,85.6,54.9,29.26,NW,318,3.1,3.1,35,0.00,,FEW,0.00,VWS V14.00,2013-07-13 10:22:00,
2013-07-13 03:23:00,85.6,54.1,29.26,North,2,2.9,3.1,34,0.00,,FEW,0.00,VWS V14.00,2013-07-13 10:23:00,
2013-07-13 03:24:00,85.6,54.1,29.26,WSW,250,1.6,3.4,34,0.00,,FEW,0.00,VWS V14.00,2013-07-13 10:24:00,
2013-07-13 03:25:00,85.8,55.0,29.26,NNW,340,3.4,3.4,35,0.00,,FEW,0.00,VWS V14.00,2013-07-13 10:25:00,
2013-07-13 03:26:00,85.8,55.0,29.26,NW,318,2.9,3.4,35,0.00,,FEW,0.00,VWS V14.00,2013-07-13 10:26:00,
2013-07-13 03:27:00,85.6,54.9,29.26,SW,228,3.1,5.8,35,0.00,,FEW,0.00,VWS V14.00,2013-07-13 10:27:00,
2013-07-13 03:28:00,85.3,54.6,29.26,NW,318,2.9,3.1,35,0.00,,FEW,0.00,VWS V14.00,2013-07-13 10:28:00,
2013-07-13 03:29:00,85.3,54.6,29.26,WNW,295,2.0,3.1,35,0.00,,FEW,0.00,VWS V14.00,2013-07-13 10:29:00,
2013-07-13 03:30:00,85.3,54.6,29.26,NW,318,1.3,2.5,35,0.00,,FEW,0.00,VWS V14.00,2013-07-13 10:30:00,
2013-07-13 03:31:00,85.5,54.7,29.26,NW,318,2.7,2.9,35,0.00,,FEW,0.00,VWS V14.00,2013-07-13 10:31:00,
2013-07-13 03:32:00,85.6,54.9,29.26,North,2,2.7,2.9,35,0.00,,FEW,0.00,VWS V14.00,2013-07-13 10:32:00,
2013-07-13 03:33:00,85.6,54.9,29.26,NW,318,2.5,3.4,35,0.00,,FEW,0.00,VWS V14.00,2013-07-13 10:33:00,
2013-07-13 03:34:00,85.3,54.6,29.26,NW,318,3.1,4.7,35,0.00,,FEW,0.00,VWS V14.00,2013-07-13 10:34:00,
2013-07-13 03:36:00,84.9,54.2,29.26,NNE,25,8.7,8.7,35,0.00,,FEW,0.00,VWS V14.00,2013-07-13 10:36:00,
2013-07-13 03:37:00,84.2,52.8,29.26,NNW,340,5.6,8.7,34,0.00,,FEW,0.00,VWS V14.00,2013-07-13 10:37:00,
2013-07-13 03:38:00,83.8,53.3,29.26,NW,318,3.1,5.8,35,0.00,,FEW,0.00,VWS V14.00,2013-07-13 10:38:00,
2013-07-13 03:39:00,83.7,53.1,29.26,West,272,4.0,4.9,35,0.00,,FEW,0.00,VWS V14.00,2013-07-13 10:39:00,
2013-07-13 03:40:00,83.3,52.8,29.26,NW,318,2.9,4.0,35,0.00,,FEW,0.00,VWS V14.00,2013-07-13 10:40:00,
2013-07-13 03:41:00,83.3,52.8,29.26,NW,318,4.0,4.0,35,0.00,,FEW,0.00,VWS V14.00,2013-07-13 10:41:00,
2013-07-13 03:42:00,83.3,53.6,29.26,NNW,340,1.1,4.0,36,0.00,,FEW,0.00,VWS V14.00,2013-07-13 10:42:00,
2013-07-13 03:43:00,83.7,54.7,29.26,North,2,3.4,3.8,37,0.00,,FEW,0.00,VWS V14.00,2013-07-13 10:43:00,
2013-07-13 03:44:00,83.8,54.1,29.26,West,272,1.3,4.7,36,0.00,,FEW,0.00,VWS V14.00,2013-07-13 10:44:00,
2013-07-13 03:45:00,84.0,54.2,29.26,NW,318,2.0,2.9,36,0.00,,FEW,0.00,VWS V14.00,2013-07-13 10:45:00,
2013-07-13 03:46:00,84.2,54.4,29.26,SSW,205,1.3,2.7,36,0.00,,FEW,0.00,VWS V14.00,2013-07-13 10:46:00,
2013-07-13 03:47:00,84.2,54.4,29.26,West,272,4.3,4.3,36,0.00,,FEW,0.00,VWS V14.00,2013-07-13 10:47:00,
2013-07-13 03:48:00,84.4,53.8,29.26,NW,318,2.0,4.3,35,0.00,,FEW,0.00,VWS V14.00,2013-07-13 10:48:00,
2013-07-13 03:49:00,84.2,54.4,29.26,SW,228,0.9,2.0,36,0.00,,FEW,0.00,VWS V14.00,2013-07-13 10:49:00,
2013-07-13 03:50:00,84.2,53.6,29.26,North,2,3.1,3.1,35,0.00,,FEW,0.00,VWS V14.00,2013-07-13 10:50:00,
2013-07-13 03:51:00,83.8,54.1,29.26,NW,318,4.0,7.2,36,0.00,,FEW,0.00,VWS V14.00,2013-07-13 10:51:00,
2013-07-13 03:52:00,83.8,54.1,29.26,WNW,295,2.2,4.0,36,0.00,,FEW,0.00,VWS V14.00,2013-07-13 10:52:00,
2013-07-13 03:53:00,83.8,54.1,29.26,North,2,2.7,2.7,36,0.00,,FEW,0.00,VWS V14.00,2013-07-13 10:53:00,
2013-07-13 03:54:00,83.7,53.9,29.26,NW,318,3.6,6.3,36,0.00,,FEW,0.00,VWS V14.00,2013-07-13 10:54:00,
2013-07-13 03:55:00,83.3,53.6,29.26,NW,318,3.6,6.0,36,0.00,,FEW,0.00,VWS V14.00,2013-07-13 10:55:00,
2013-07-13 03:57:00,82.9,53.3,29.26,NW,318,3.1,5.6,36,0.00,,FEW,0.00,VWS V14.00,2013-07-13 10:57:00,
2013-07-13 03:58:00,82.9,54.0,29.26,NW,318,2.5,4.3,37,0.00,,FEW,0.00,VWS V14.00,2013-07-13 10:58:00,
2013-07-13 03:59:00,83.1,54.2,29.26,West,272,1.3,2.5,37,0.00,,FEW,0.00,VWS V14.00,2013-07-13 10:59:00,
2013-07-13 04:00:00,83.1,54.2,29.26,WNW,295,2.0,2.0,37,0.00,,FEW,0.00,VWS V14.00,2013-07-13 11:00:00,
2013-07-13 04:01:00,82.8,53.1,29.26,NW,318,6.5,6.5,36,0.00,,FEW,0.00,VWS V14.00,2013-07-13 11:01:00,
2013-07-13 04:02:00,82.4,52.8,29.26,NW,318,1.3,7.4,36,0.00,,FEW,0.00,VWS V14.00,2013-07-13 11:02:00,
2013-07-13 04:03:00,82.2,53.4,29.26,West,272,2.5,3.8,37,0.00,,FEW,0.00,VWS V14.00,2013-07-13 11:03:00,
2013-07-13 04:04:00,82.2,53.4,29.26,NW,318,1.3,2.5,37,0.00,,FEW,0.00,VWS V14.00,2013-07-13 11:04:00,
2013-07-13 04:05:00,82.4,53.5,29.26,NNW,340,1.3,2.2,37,0.00,,FEW,0.00,VWS V14.00,2013-07-13 11:05:00,
2013-07-13 04:07:00,82.8,53.9,29.26,NW,318,2.0,2.2,37,0.00,,FEW,0.00,VWS V14.00,2013-07-13 11:07:00,
2013-07-13 04:08:00,82.9,54.0,29.26,North,2,4.7,4.7,37,0.00,,FEW,0.00,VWS V14.00,2013-07-13 11:08:00,
2013-07-13 04:09:00,82.4,53.5,29.26,NNW,340,2.0,4.7,37,0.00,,FEW,0.00,VWS V14.00,2013-07-13 11:09:00,
2013-07-13 04:10:00,82.4,53.5,29.26,North,2,2.9,2.9,37,0.00,,FEW,0.00,VWS V14.00,2013-07-13 11:10:00,
2013-07-13 04:11:00,82.4,53.5,29.26,North,2,2.5,3.8,37,0.00,,FEW,0.00,VWS V14.00,2013-07-13 11:11:00,
2013-07-13 04:12:00,82.2,53.4,29.26,North,2,2.5,3.4,37,0.00,,FEW,0.00,VWS V14.00,2013-07-13 11:12:00,
2013-07-13 04:13:00,82.0,54.0,29.26,NW,318,1.6,2.9,38,0.00,,FEW,0.00,VWS V14.00,2013-07-13 11:13:00,
2013-07-13 04:14:00,82.0,54.0,29.26,NW,318,5.6,8.1,38,0.00,,FEW,0.00,VWS V14.00,2013-07-13 11:14:00,
2013-07-13 04:15:00,81.7,52.9,29.26,WNW,295,4.3,5.6,37,0.00,,FEW,0.00,VWS V14.00,2013-07-13 11:15:00,
2013-07-13 04:16:00,81.9,53.1,29.26,NW,318,2.0,4.3,37,0.00,,FEW,0.00,VWS V14.00,2013-07-13 11:16:00,
2013-07-13 04:17:00,81.9,53.1,29.26,North,2,3.1,3.1,37,0.00,,FEW,0.00,VWS V14.00,2013-07-13 11:17:00,
2013-07-13 04:18:00,82.0,54.0,29.26,NW,318,6.3,6.3,38,0.00,,FEW,0.00,VWS V14.00,2013-07-13 11:18:00,
2013-07-13 04:19:00,81.9,53.1,29.26,NW,318,2.9,6.3,37,0.00,,FEW,0.00,VWS V14.00,2013-07-13 11:19:00,
2013-07-13 04:20:00,82.0,54.0,29.26,NW,318,1.6,2.9,38,0.00,,FEW,0.00,VWS V14.00,2013-07-13 11:20:00,
2013-07-13 04:21:00,82.0,54.0,29.26,NW,318,3.1,3.8,38,0.00,,FEW,0.00,VWS V14.00,2013-07-13 11:21:00,
2013-07-13 04:22:00,82.0,54.0,29.26,NW,318,0.9,3.1,38,0.00,,FEW,0.00,VWS V14.00,2013-07-13 11:22:00,
2013-07-13 04:23:00,81.9,53.8,29.26,North,2,2.0,2.0,38,0.00,,FEW,0.00,VWS V14.00,2013-07-13 11:23:00,
2013-07-13 04:24:00,82.0,54.0,29.26,NW,318,0.9,2.7,38,0.00,,FEW,0.00,VWS V14.00,2013-07-13 11:24:00,
2013-07-13 04:25:00,82.0,54.0,29.26,SW,228,3.6,3.6,38,0.00,,FEW,0.00,VWS V14.00,2013-07-13 11:25:00,
2013-07-13 04:26:00,82.0,53.2,29.26,NNW,340,0.9,3.6,37,0.00,,FEW,0.00,VWS V14.00,2013-07-13 11:26:00,
2013-07-13 04:27:00,82.0,53.2,29.26,ENE,70,2.0,3.1,37,0.00,,FEW,0.00,VWS V14.00,2013-07-13 11:27:00,
2013-07-13 04:28:00,82.0,54.0,29.26,NNW,340,2.5,2.5,38,0.00,,FEW,0.00,VWS V14.00,2013-07-13 11:28:00,
2013-07-13 04:29:00,82.2,54.1,29.26,WNW,295,3.6,3.6,38,0.00,,FEW,0.00,VWS V14.00,2013-07-13 11:29:00,
2013-07-13 04:30:00,82.2,54.1,29.26,NW,318,3.1,4.3,38,0.00,,FEW,0.00,VWS V14.00,2013-07-13 11:30:00,
2013-07-13 04:31:00,82.0,53.2,29.26,NW,318,5.8,5.8,37,0.00,,FEW,0.00,VWS V14.00,2013-07-13 11:31:00,
2013-07-13 04:32:00,81.7,52.2,29.26,NNW,340,2.5,5.8,36,0.00,,FEW,0.00,VWS V14.00,2013-07-13 11:32:00,
2013-07-13 04:33:00,81.7,52.2,29.26,West,272,5.8,5.8,36,0.00,,FEW,0.00,VWS V14.00,2013-07-13 11:33:00,
2013-07-13 04:34:00,81.3,51.8,29.26,North,2,1.6,5.8,36,0.00,,FEW,0.00,VWS V14.00,2013-07-13 11:34:00,
2013-07-13 04:35:00,81.3,52.6,29.26,West,272,2.5,2.5,37,0.00,,FEW,0.00,VWS V14.00,2013-07-13 11:35:00,
2013-07-13 04:36:00,81.5,52.7,29.26,SSW,205,1.1,2.5,37,0.00,,FEW,0.00,VWS V14.00,2013-07-13 11:36:00,
2013-07-13 04:37:00,81.5,52.7,29.26,NW,318,1.6,2.7,37,0.00,,FEW,0.00,VWS V14.00,2013-07-13 11:37:00,
2013-07-13 04:38:00,81.7,52.9,29.26,North,2,2.7,2.7,37,0.00,,FEW,0.00,VWS V14.00,2013-07-13 11:38:00,
2013-07-13 04:39:00,81.5,52.7,29.26,WNW,295,2.0,3.6,37,0.00,,FEW,0.00,VWS V14.00,2013-07-13 11:39:00,
2013-07-13 04:40:00,81.3,52.6,29.26,NNE,25,1.6,2.0,37,0.00,,FEW,0.00,VWS V14.00,2013-07-13 11:40:00,
2013-07-13 04:41:00,81.3,52.6,29.26,ENE,70,2.0,2.2,37,0.00,,FEW,0.00,VWS V14.00,2013-07-13 11:41:00,
2013-07-13 04:42:00,81.3,52.6,29.26,NNW,340,2.5,2.5,37,0.00,,FEW,0.00,VWS V14.00,2013-07-13 11:42:00,
2013-07-13 04:43:00,81.3,52.6,29.26,West,272,1.1,2.9,37,0.00,,FEW,0.00,VWS V14.00,2013-07-13 11:43:00,
2013-07-13 04:44:00,81.5,52.7,29.26,NNW,340,1.1,1.3,37,0.00,,FEW,0.00,VWS V14.00,2013-07-13 11:44:00,
2013-07-13 04:45:00,81.3,52.6,29.26,WNW,295,1.3,2.5,37,0.00,,FEW,0.00,VWS V14.00,2013-07-13 11:45:00,
2013-07-13 04:46:00,81.3,52.6,29.26,NNE,25,1.3,1.6,37,0.00,,FEW,0.00,VWS V14.00,2013-07-13 11:46:00,
2013-07-13 04:47:00,81.1,52.4,29.26,NNW,340,2.9,2.9,37,0.00,,FEW,0.00,VWS V14.00,2013-07-13 11:47:00,
2013-07-13 04:48:00,81.0,52.3,29.26,North,2,0.9,2.9,37,0.00,,FEW,0.00,VWS V14.00,2013-07-13 11:48:00,
2013-07-13 04:49:00,80.8,52.1,29.26,NNW,340,1.6,1.6,37,0.00,,FEW,0.00,VWS V14.00,2013-07-13 11:49:00,
2013-07-13 04:50:00,80.8,52.8,29.26,NNW,340,1.3,1.6,38,0.00,,FEW,0.00,VWS V14.00,2013-07-13 11:50:00,
2013-07-13 04:51:00,81.0,53.0,29.26,ENE,70,2.2,2.2,38,0.00,,FEW,0.00,VWS V14.00,2013-07-13 11:51:00,
2013-07-13 04:52:00,80.8,52.8,29.26,NNW,340,2.9,2.9,38,0.00,,FEW,0.00,VWS V14.00,2013-07-13 11:52:00,
2013-07-13 04:53:00,80.8,52.8,29.26,North,2,1.1,2.9,38,0.00,,FEW,0.00,VWS V14.00,2013-07-13 11:53:00,
2013-07-13 04:54:00,80.8,52.8,29.26,North,2,1.1,2.0,38,0.00,,FEW,0.00,VWS V14.00,2013-07-13 11:54:00,
2013-07-13 04:55:00,81.0,53.0,29.26,West,272,1.1,2.0,38,0.00,,FEW,0.00,VWS V14.00,2013-07-13 11:55:00,
2013-07-13 04:56:00,80.8,52.8,29.26,NW,318,2.7,2.7,38,0.00,,FEW,0.00,VWS V14.00,2013-07-13 11:56:00,
2013-07-13 04:57:00,80.8,52.8,29.26,NW,318,2.2,3.4,38,0.00,,FEW,0.00,VWS V14.00,2013-07-13 11:57:00,
2013-07-13 04:58:00,80.6,52.0,29.26,NW,318,2.2,2.5,37,0.00,,FEW,0.00,VWS V14.00,2013-07-13 11:58:00,
2013-07-13 04:59:00,80.6,52.7,29.26,West,272,1.3,3.1,38,0.00,,FEW,0.00,VWS V14.00,2013-07-13 11:59:00,
2013-07-13 05:00:00,80.4,52.5,29.26,West,272,1.6,3.4,38,0.00,,FEW,0.00,VWS V14.00,2013-07-13 12:00:00,
2013-07-13 05:01:00,80.4,52.5,29.26,SW,228,0.0,1.6,38,0.00,,FEW,0.00,VWS V14.00,2013-07-13 12:01:00,
2013-07-13 05:02:00,80.4,52.5,29.26,NNW,340,1.1,1.1,38,0.00,,FEW,0.00,VWS V14.00,2013-07-13 12:02:00,
2013-07-13 05:03:00,80.2,52.3,29.26,NW,318,2.7,2.9,38,0.00,,FEW,0.00,VWS V14.00,2013-07-13 12:03:00,
2013-07-13 05:04:00,80.1,52.2,29.26,NW,318,2.2,2.9,38,0.00,,FEW,0.00,VWS V14.00,2013-07-13 12:04:00,
2013-07-13 05:05:00,79.9,52.0,29.26,North,2,0.0,2.2,38,0.00,,FEW,0.00,VWS V14.00,2013-07-13 12:05:00,
2013-07-13 05:06:00,79.5,52.4,29.26,West,272,2.0,2.0,39,0.00,,FEW,0.00,VWS V14.00,2013-07-13 12:06:00,
2013-07-13 05:07:00,79.5,52.4,29.26,West,272,3.8,3.8,39,0.00,,FEW,0.00,VWS V14.00,2013-07-13 12:07:00,
2013-07-13 05:08:00,79.3,52.3,29.26,NNW,340,3.4,3.8,39,0.00,,FEW,0.00,VWS V14.00,2013-07-13 12:08:00,
2013-07-13 05:09:00,79.2,52.1,29.26,North,2,2.0,3.4,39,0.00,,FEW,0.00,VWS V14.00,2013-07-13 12:09:00,
2013-07-13 05:10:00,79.2,52.1,29.26,NNW,340,1.6,3.1,39,0.00,,FEW,0.00,VWS V14.00,2013-07-13 12:10:00,
2013-07-13 05:11:00,79.0,52.6,29.26,NW,318,2.2,2.2,40,0.00,,FEW,0.00,VWS V14.00,2013-07-13 12:11:00,
2013-07-13 05:12:00,78.8,52.5,29.26,NW,318,1.6,2.9,40,0.00,,FEW,0.00,VWS V14.00,2013-07-13 12:12:00,
2013-07-13 05:13:00,78.4,52.1,29.26,NW,318,2.5,2.5,40,0.00,,FEW,0.00,VWS V14.00,2013-07-13 12:13:00,
2013-07-13 05:14:00,78.3,52.0,29.26,NW,318,3.1,3.4,40,0.00,,FEW,0.00,VWS V14.00,2013-07-13 12:14:00,
2013-07-13 05:15:00,78.1,51.8,29.26,NW,318,1.1,3.8,40,0.00,,FEW,0.00,VWS V14.00,2013-07-13 12:15:00,
2013-07-13 05:16:00,78.1,51.8,29.26,North,2,3.1,3.1,40,0.00,,FEW,0.00,VWS V14.00,2013-07-13 12:16:00,
2013-07-13 05:17:00,77.5,51.3,29.26,NW,318,3.1,3.1,40,0.00,,FEW,0.00,VWS V14.00,2013-07-13 12:17:00,
2013-07-13 05:18:00,77.4,51.2,29.26,NW,318,5.6,5.6,40,0.00,,FEW,0.00,VWS V14.00,2013-07-13 12:18:00,
2013-07-13 05:19:00,77.0,51.5,29.26,NW,318,3.1,6.3,41,0.00,,FEW,0.00,VWS V14.00,2013-07-13 12:19:00,
2013-07-13 05:20:00,76.6,51.8,29.26,NW,318,3.1,4.9,42,0.00,,FEW,0.00,VWS V14.00,2013-07-13 12:20:00,
2013-07-13 05:21:00,76.3,51.5,29.26,NW,318,1.3,4.0,42,0.00,,FEW,0.00,VWS V14.00,2013-07-13 12:21:00,
2013-07-13 05:22:00,76.1,51.4,29.26,NNW,340,4.9,4.9,42,0.00,,FEW,0.00,VWS V14.00,2013-07-13 12:22:00,
2013-07-13 05:24:00,75.7,51.0,29.26,NW,318,2.7,4.9,42,0.00,,FEW,0.00,VWS V14.00,2013-07-13 12:24:00,
2013-07-13 05:25:00,75.7,51.0,29.26,NNW,340,3.4,3.4,42,0.00,,FEW,0.00,VWS V14.00,2013-07-13 12:25:00,
2013-07-13 05:26:00,75.6,51.5,29.26,NW,318,6.0,7.2,43,0.00,,FEW,0.00,VWS V14.00,2013-07-13 12:26:00,
2013-07-13 05:27:00,75.4,51.3,29.26,WSW,250,3.8,6.0,43,0.00,,FEW,0.00,VWS V14.00,2013-07-13 12:27:00,
2013-07-13 05:28:00,75.0,51.0,29.26,NNW,340,2.0,3.8,43,0.00,,FEW,0.00,VWS V14.00,2013-07-13 12:28:00,
2013-07-13 05:29:00,75.0,51.0,29.26,North,2,2.9,5.8,43,0.00,,FEW,0.00,VWS V14.00,2013-07-13 12:29:00,
2013-07-13 05:30:00,74.8,51.5,29.26,North,2,6.0,6.0,44,0.00,,FEW,0.00,VWS V14.00,2013-07-13 12:30:00,
2013-07-13 05:31:00,74.5,51.2,29.26,NNW,340,3.4,6.0,44,0.00,,FEW,0.00,VWS V14.00,2013-07-13 12:31:00,
2013-07-13 05:32:00,74.5,51.2,29.26,NW,318,4.3,6.5,44,0.00,,FEW,0.00,VWS V14.00,2013-07-13 12:32:00,
2013-07-13 05:33:00,74.3,51.6,29.26,West,272,3.1,4.9,45,0.00,,FEW,0.00,VWS V14.00,2013-07-13 12:33:00,
2013-07-13 05:34:00,74.3,51.6,29.26,NNW,340,2.0,6.0,45,0.00,,FEW,0.00,VWS V14.00,2013-07-13 12:34:00,
2013-07-13 05:35:00,74.1,51.4,29.26,North,2,2.5,3.1,45,0.00,,FEW,0.00,VWS V14.00,2013-07-13 12:35:00,
2013-07-13 05:36:00,73.9,51.3,29.26,NNW,340,3.6,3.6,45,0.00,,FEW,0.00,VWS V14.00,2013-07-13 12:36:00,
2013-07-13 05:37:00,73.8,51.7,29.26,NW,318,4.9,8.7,46,0.00,,FEW,0.00,VWS V14.00,2013-07-13 12:37:00,
2013-07-13 05:38:00,73.8,51.7,29.26,WNW,295,2.0,4.9,46,0.00,,FEW,0.00,VWS V14.00,2013-07-13 12:38:00,
2013-07-13 05:39:00,73.6,51.5,29.26,NW,318,4.0,4.0,46,0.00,,FEW,0.00,VWS V14.00,2013-07-13 12:39:00,
2013-07-13 05:40:00,73.6,51.5,29.26,NW,318,3.6,4.0,46,0.00,,FEW,0.00,VWS V14.00,2013-07-13 12:40:00,
2013-07-13 05:41:00,73.4,51.4,29.26,NW,318,3.4,4.0,46,0.00,,FEW,0.00,VWS V14.00,2013-07-13 12:41:00,
2013-07-13 05:42:00,73.2,51.2,29.26,West,272,2.5,3.4,46,0.00,,FEW,0.00,VWS V14.00,2013-07-13 12:42:00,
2013-07-13 05:43:00,73.2,51.2,29.26,NW,318,2.0,2.5,46,0.00,,FEW,0.00,VWS V14.00,2013-07-13 12:43:00,
2013-07-13 05:44:00,73.2,52.4,29.26,NW,318,5.6,5.6,48,0.00,,FEW,0.00,VWS V14.00,2013-07-13 12:44:00,
2013-07-13 05:45:00,73.0,52.2,29.26,NW,318,4.3,6.3,48,0.00,,FEW,0.00,VWS V14.00,2013-07-13 12:45:00,
2013-07-13 05:46:00,72.9,52.0,29.26,NW,318,5.4,5.4,48,0.00,,FEW,0.00,VWS V14.00,2013-07-13 12:46:00,
2013-07-13 05:47:00,72.7,51.9,29.26,West,272,3.4,5.4,48,0.00,,FEW,0.00,VWS V14.00,2013-07-13 12:47:00,
2013-07-13 05:48:00,72.7,51.9,29.26,NW,318,3.1,4.0,48,0.00,,FEW,0.00,VWS V14.00,2013-07-13 12:48:00,
2013-07-13 05:49:00,72.7,51.9,29.26,NNE,25,0.9,3.1,48,0.00,,FEW,0.00,VWS V14.00,2013-07-13 12:49:00,
2013-07-13 05:50:00,72.7,51.9,29.26,NNE,25,0.9,1.3,48,0.00,,FEW,0.00,VWS V14.00,2013-07-13 12:50:00,
2013-07-13 05:51:00,72.9,52.0,29.26,NW,318,2.0,2.5,48,0.00,,FEW,0.00,VWS V14.00,2013-07-13 12:51:00,
2013-07-13 05:52:00,72.9,52.0,29.26,WNW,295,0.0,2.0,48,0.00,,FEW,0.00,VWS V14.00,2013-07-13 12:52:00,
2013-07-13 05:53:00,73.0,52.2,29.26,WNW,295,0.0,0.0,48,0.00,,FEW,0.00,VWS V14.00,2013-07-13 12:53:00,
2013-07-13 05:54:00,73.0,52.2,29.26,NW,318,3.4,4.7,48,0.00,,FEW,0.00,VWS V14.00,2013-07-13 12:54:00,
2013-07-13 05:55:00,72.9,52.6,29.26,North,2,3.1,3.8,49,0.00,,FEW,0.00,VWS V14.00,2013-07-13 12:55:00,
2013-07-13 05:56:00,72.7,52.4,29.26,NNW,340,3.4,3.6,49,0.00,,FEW,0.00,VWS V14.00,2013-07-13 12:56:00,
2013-07-13 05:57:00,72.5,52.3,29.26,NNW,340,3.1,3.4,49,0.00,,FEW,0.00,VWS V14.00,2013-07-13 12:57:00,
2013-07-13 05:58:00,72.5,52.3,29.26,NW,318,2.7,3.6,49,0.00,,FEW,0.00,VWS V14.00,2013-07-13 12:58:00,
2013-07-13 05:59:00,72.5,52.3,29.26,NW,318,1.3,2.7,49,0.00,,FEW,0.00,VWS V14.00,2013-07-13 12:59:00,
2013-07-13 06:00:00,72.5,52.3,29.26,NW,318,0.0,1.3,49,0.00,,FEW,0.00,VWS V14.00,2013-07-13 13:00:00,
2013-07-13 06:01:00,72.5,52.8,29.26,SW,228,0.0,1.1,50,0.00,,FEW,0.00,VWS V14.00,2013-07-13 13:01:00,
2013-07-13 06:02:00,72.5,52.3,29.26,WNW,295,0.9,1.3,49,0.00,,FEW,0.00,VWS V14.00,2013-07-13 13:02:00,
2013-07-13 06:03:00,72.5,52.3,29.26,NW,318,1.3,1.6,49,0.00,,FEW,0.00,VWS V14.00,2013-07-13 13:03:00,
2013-07-13 06:04:00,72.7,53.0,29.26,NW,318,0.0,1.3,50,0.00,,FEW,0.00,VWS V14.00,2013-07-13 13:04:00,
2013-07-13 06:05:00,72.5,52.3,29.26,NW,318,2.7,3.1,49,0.00,,FEW,0.00,VWS V14.00,2013-07-13 13:05:00,
2013-07-13 06:06:00,72.5,52.8,29.26,West,272,1.1,2.7,50,0.00,,FEW,0.00,VWS V14.00,2013-07-13 13:06:00,
2013-07-13 06:07:00,72.3,52.7,29.26,NW,318,2.5,2.9,50,0.00,,FEW,0.00,VWS V14.00,2013-07-13 13:07:00,
2013-07-13 06:08:00,72.3,52.7,29.26,NW,318,3.6,3.6,50,0.00,,FEW,0.00,VWS V14.00,2013-07-13 13:08:00,
2013-07-13 06:09:00,72.1,52.5,29.26,North,2,2.9,4.0,50,0.00,,FEW,0.00,VWS V14.00,2013-07-13 13:09:00,
2013-07-13 06:10:00,72.1,52.5,29.26,NW,318,2.7,2.9,50,0.00,,FEW,0.00,VWS V14.00,2013-07-13 13:10:00,
2013-07-13 06:11:00,72.1,52.5,29.26,West,272,2.9,2.9,50,0.00,,FEW,0.00,VWS V14.00,2013-07-13 13:11:00,
2013-07-13 06:12:00,72.1,52.5,29.26,North,2,0.9,2.9,50,0.00,,FEW,0.00,VWS V14.00,2013-07-13 13:12:00,
2013-07-13 06:13:00,72.0,52.9,29.26,North,2,0.9,1.6,51,0.00,,FEW,0.00,VWS V14.00,2013-07-13 13:13:00,
2013-07-13 06:14:00,72.1,53.0,29.26,North,2,1.3,1.3,51,0.00,,FEW,0.00,VWS V14.00,2013-07-13 13:14:00,
2013-07-13 06:15:00,72.1,53.0,29.26,NNW,340,3.1,3.1,51,0.00,,FEW,0.00,VWS V14.00,2013-07-13 13:15:00,
2013-07-13 06:16:00,72.0,52.9,29.26,NNW,340,0.9,3.1,51,0.00,,FEW,0.00,VWS V14.00,2013-07-13 13:16:00,
2013-07-13 06:17:00,72.0,52.9,29.26,West,272,0.0,1.6,51,0.00,,FEW,0.00,VWS V14.00,2013-07-13 13:17:00,
2013-07-13 06:18:00,72.0,52.9,29.26,NW,318,0.9,1.3,51,0.00,,FEW,0.00,VWS V14.00,2013-07-13 13:18:00,
2013-07-13 06:19:00,72.0,52.9,29.26,NW,318,2.5,4.3,51,0.00,,FEW,0.00,VWS V14.00,2013-07-13 13:19:00,
2013-07-13 06:20:00,71.8,52.7,29.26,NW,318,2.0,2.5,51,0.00,,FEW,0.00,VWS V14.00,2013-07-13 13:20:00,
2013-07-13 06:21:00,71.8,52.7,29.26,NW,318,1.6,2.0,51,0.00,,FEW,0.00,VWS V14.00,2013-07-13 13:21:00,
2013-07-13 06:22:00,71.6,53.1,29.26,NW,318,2.2,3.6,52,0.00,,FEW,0.00,VWS V14.00,2013-07-13 13:22:00,
2013-07-13 06:23:00,71.4,52.9,29.26,NW,318,0.9,2.7,52,0.00,,FEW,0.00,VWS V14.00,2013-07-13 13:23:00,
2013-07-13 06:24:00,71.4,52.9,29.26,NW,318,2.5,3.4,52,0.00,,FEW,0.00,VWS V14.00,2013-07-13 13:24:00,
2013-07-13 06:25:00,71.4,53.4,29.26,NW,318,1.1,2.5,53,0.00,,FEW,0.00,VWS V14.00,2013-07-13 13:25:00,
2013-07-13 06:26:00,71.4,53.4,29.26,West,272,1.1,2.2,53,0.00,,FEW,0.00,VWS V14.00,2013-07-13 13:26:00,
2013-07-13 06:27:00,71.4,53.4,29.26,West,272,0.0,1.3,53,0.00,,FEW,0.00,VWS V14.00,2013-07-13 13:27:00,
2013-07-13 06:28:00,71.2,53.2,29.26,North,2,1.3,1.3,53,0.00,,FEW,0.00,VWS V14.00,2013-07-13 13:28:00,
2013-07-13 06:29:00,71.2,53.2,29.26,North,2,1.3,1.3,53,0.00,,FEW,0.00,VWS V14.00,2013-07-13 13:29:00,
2013-07-13 06:30:00,71.2,53.2,29.26,NW,318,1.1,1.3,53,0.00,,FEW,0.00,VWS V14.00,2013-07-13 13:30:00,
2013-07-13 06:31:00,71.2,53.2,29.26,NNE,25,0.0,1.1,53,0.00,,FEW,0.00,VWS V14.00,2013-07-13 13:31:00,
2013-07-13 06:32:00,71.2,53.2,29.26,North,2,1.1,1.3,53,0.00,,FEW,0.00,VWS V14.00,2013-07-13 13:32:00,
2013-07-13 06:33:00,71.1,53.6,29.26,WNW,295,0.0,1.1,54,0.00,,FEW,0.00,VWS V14.00,2013-07-13 13:33:00,
2013-07-13 06:34:00,71.1,53.1,29.26,SW,228,1.3,1.3,53,0.00,,FEW,0.00,VWS V14.00,2013-07-13 13:34:00,
2013-07-13 06:35:00,70.9,52.9,29.26,NW,318,0.0,1.3,53,0.00,,FEW,0.00,VWS V14.00,2013-07-13 13:35:00,
2013-07-13 06:36:00,70.9,53.4,29.26,NW,318,2.9,2.9,54,0.00,,FEW,0.00,VWS V14.00,2013-07-13 13:36:00,
2013-07-13 06:37:00,70.7,53.3,29.26,NW,318,1.1,3.6,54,0.00,,FEW,0.00,VWS V14.00,2013-07-13 13:37:00,
2013-07-13 06:38:00,70.5,53.1,29.26,West,272,0.9,1.3,54,0.00,,FEW,0.00,VWS V14.00,2013-07-13 13:38:00,
2013-07-13 06:39:00,70.5,53.6,29.26,NW,318,1.6,1.6,55,0.00,,FEW,0.00,VWS V14.00,2013-07-13 13:39:00,
2013-07-13 06:40:00,70.3,52.9,29.26,NW,318,1.3,2.0,54,0.00,,FEW,0.00,VWS V14.00,2013-07-13 13:40:00,
2013-07-13 06:41:00,70.3,52.9,29.26,NW,318,0.0,1.3,54,0.00,,FEW,0.00,VWS V14.00,2013-07-13 13:41:00,
2013-07-13 06:42:00,70.2,53.3,29.26,NNW,340,2.2,2.2,55,0.00,,FEW,0.00,VWS V14.00,2013-07-13 13:42:00,
2013-07-13 06:43:00,70.2,53.3,29.26,NW,318,1.6,2.2,55,0.00,,FEW,0.00,VWS V14.00,2013-07-13 13:43:00,
2013-07-13 06:44:00,70.2,53.3,29.26,NNW,340,2.7,2.7,55,0.00,,FEW,0.00,VWS V14.00,2013-07-13 13:44:00,
2013-07-13 06:46:00,70.2,53.3,29.26,NNW,340,2.7,2.7,55,0.00,,FEW,0.00,VWS V14.00,2013-07-13 13:46:00,
2013-07-13 06:47:00,69.4,53.6,29.26,NW,318,2.9,3.4,57,0.00,,FEW,0.00,VWS V14.00,2013-07-13 13:47:00,
2013-07-13 06:48:00,69.3,53.9,29.26,NW,318,3.1,3.8,58,0.00,,FEW,0.00,VWS V14.00,2013-07-13 13:48:00,
2013-07-13 06:49:00,69.1,53.7,29.26,NW,318,3.1,3.4,58,0.00,,FEW,0.00,VWS V14.00,2013-07-13 13:49:00,
2013-07-13 06:50:00,68.9,54.0,29.26,NW,318,2.2,3.1,59,0.00,,FEW,0.00,VWS V14.00,2013-07-13 13:50:00,
2013-07-13 06:51:00,68.9,54.0,29.26,NW,318,0.0,2.5,59,0.00,,FEW,0.00,VWS V14.00,2013-07-13 13:51:00,
2013-07-13 06:52:00,68.7,53.8,29.26,NNW,340,1.6,2.0,59,0.00,,FEW,0.00,VWS V14.00,2013-07-13 13:52:00,
2013-07-13 06:54:00,68.7,53.8,29.26,NW,318,1.3,1.6,59,0.00,,FEW,0.00,VWS V14.00,2013-07-13 13:54:00,
2013-07-13 06:55:00,68.5,53.7,29.26,NW,318,2.0,2.2,59,0.00,,FEW,0.00,VWS V14.00,2013-07-13 13:55:00,
2013-07-13 06:56:00,68.4,53.5,29.26,NW,318,0.9,2.0,59,0.00,,FEW,0.00,VWS V14.00,2013-07-13 13:56:00,
2013-07-13 06:57:00,68.4,53.5,29.26,NW,318,0.0,0.9,59,0.00,,FEW,0.00,VWS V14.00,2013-07-13 13:57:00,
2013-07-13 06:58:00,68.2,53.8,29.26,NW,318,0.0,0.0,60,0.00,,FEW,0.00,VWS V14.00,2013-07-13 13:58:00,
2013-07-13 06:59:00,68.2,53.8,29.26,NW,318,2.0,2.0,60,0.00,,FEW,0.00,VWS V14.00,2013-07-13 13:59:00,
2013-07-13 07:00:00,68.0,53.6,29.26,WNW,295,1.3,2.7,60,0.00,,FEW,0.00,VWS V14.00,2013-07-13 14:00:00,
2013-07-13 07:01:00,67.8,53.9,29.26,NW,318,2.7,2.7,61,0.00,,FEW,0.00,VWS V14.00,2013-07-13 14:01:00,
2013-07-13 07:02:00,67.8,53.9,29.26,NW,318,0.0,2.7,61,0.00,,FEW,0.00,VWS V14.00,2013-07-13 14:02:00,
2013-07-13 07:03:00,67.6,53.7,29.26,NW,318,2.5,3.4,61,0.00,,FEW,0.00,VWS V14.00,2013-07-13 14:03:00,
2013-07-13 07:04:00,67.6,53.7,29.26,NW,318,0.0,2.5,61,0.00,,FEW,0.00,VWS V14.00,2013-07-13 14:04:00,
2013-07-13 07:05:00,67.6,53.7,29.26,NW,318,2.2,2.2,61,0.00,,FEW,0.00,VWS V14.00,2013-07-13 14:05:00,
2013-07-13 07:06:00,67.5,54.0,29.26,WNW,295,0.0,2.2,62,0.00,,FEW,0.00,VWS V14.00,2013-07-13 14:06:00,
2013-07-13 07:07:00,67.5,54.0,29.26,NW,318,0.9,1.1,62,0.00,,FEW,0.00,VWS V14.00,2013-07-13 14:07:00,
2013-07-13 07:08:00,67.5,54.0,29.26,NW,318,1.3,1.3,62,0.00,,FEW,0.00,VWS V14.00,2013-07-13 14:08:00,
2013-07-13 07:09:00,67.3,53.8,29.26,NW,318,1.6,2.0,62,0.00,,FEW,0.00,VWS V14.00,2013-07-13 14:09:00,
2013-07-13 07:10:00,67.3,53.8,29.26,NNW,340,2.7,2.9,62,0.00,,FEW,0.00,VWS V14.00,2013-07-13 14:10:00,
2013-07-13 07:11:00,67.1,54.1,29.26,NW,318,1.1,2.7,63,0.00,,FEW,0.00,VWS V14.00,2013-07-13 14:11:00,
2013-07-13 07:12:00,67.1,54.1,29.26,NW,318,2.0,2.0,63,0.00,,FEW,0.00,VWS V14.00,2013-07-13 14:12:00,
2013-07-13 07:13:00,66.9,53.9,29.26,WNW,295,1.3,2.0,63,0.00,,FEW,0.00,VWS V14.00,2013-07-13 14:13:00,
2013-07-13 07:14:00,66.9,53.9,29.26,NW,318,1.3,1.6,63,0.00,,FEW,0.00,VWS V14.00,2013-07-13 14:14:00,
2013-07-13 07:15:00,66.7,53.8,29.26,West,272,0.0,2.2,63,0.00,,FEW,0.00,VWS V14.00,2013-07-13 14:15:00,
2013-07-13 07:16:00,66.7,53.8,29.26,NNW,340,0.9,1.6,63,0.00,,FEW,0.00,VWS V14.00,2013-07-13 14:16:00,
2013-07-13 07:17:00,66.7,53.8,29.26,NNW,340,0.0,0.9,63,0.00,,FEW,0.00,VWS V14.00,2013-07-13 14:17:00,
2013-07-13 07:18:00,66.7,54.2,29.26,NNW,340,0.0,0.0,64,0.00,,FEW,0.00,VWS V14.00,2013-07-13 14:18:00,
2013-07-13 07:19:00,66.7,54.2,29.26,NNW,340,0.0,0.0,64,0.00,,FEW,0.00,VWS V14.00,2013-07-13 14:19:00,
2013-07-13 07:20:00,66.7,54.2,29.26,NNW,340,1.3,1.3,64,0.00,,FEW,0.00,VWS V14.00,2013-07-13 14:20:00,
2013-07-13 07:21:00,66.7,54.2,29.26,NW,318,0.0,1.3,64,0.00,,FEW,0.00,VWS V14.00,2013-07-13 14:21:00,
2013-07-13 07:22:00,66.6,54.0,29.26,NW,318,0.0,0.9,64,0.00,,FEW,0.00,VWS V14.00,2013-07-13 14:22:00,
2013-07-13 07:23:00,66.6,54.4,29.26,NW,318,0.0,0.0,65,0.00,,FEW,0.00,VWS V14.00,2013-07-13 14:23:00,
2013-07-13 07:24:00,66.4,54.3,29.26,NW,318,1.1,1.1,65,0.00,,FEW,0.00,VWS V14.00,2013-07-13 14:24:00,
2013-07-13 07:25:00,66.4,54.3,29.26,NW,318,2.5,2.5,65,0.00,,FEW,0.00,VWS V14.00,2013-07-13 14:25:00,
2013-07-13 07:26:00,66.4,54.3,29.26,WNW,295,2.0,2.5,65,0.00,,FEW,0.00,VWS V14.00,2013-07-13 14:26:00,
2013-07-13 07:27:00,66.4,54.3,29.26,NNW,340,0.9,2.0,65,0.00,,FEW,0.00,VWS V14.00,2013-07-13 14:27:00,
2013-07-13 07:28:00,66.4,54.3,29.26,NW,318,1.1,2.0,65,0.00,,FEW,0.00,VWS V14.00,2013-07-13 14:28:00,
2013-07-13 07:29:00,66.4,54.3,29.26,NW,318,1.1,2.0,65,0.00,,FEW,0.00,VWS V14.00,2013-07-13 14:29:00,
2013-07-13 07:30:00,66.0,54.3,29.26,NW,318,0.0,0.0,66,0.00,,FEW,0.00,VWS V14.00,2013-07-13 14:30:00,
2013-07-13 07:31:00,65.8,54.2,29.26,NW,318,1.1,1.1,66,0.00,,FEW,0.00,VWS V14.00,2013-07-13 14:31:00,
2013-07-13 07:32:00,65.8,54.2,29.26,West,272,1.1,1.1,66,0.00,,FEW,0.00,VWS V14.00,2013-07-13 14:32:00,
2013-07-13 07:33:00,65.7,54.0,29.26,NNW,340,1.3,1.3,66,0.00,,FEW,0.00,VWS V14.00,2013-07-13 14:33:00,
2013-07-13 07:34:00,65.7,54.4,29.26,NW,318,2.0,2.0,67,0.00,,FEW,0.00,VWS V14.00,2013-07-13 14:34:00,
2013-07-13 07:35:00,65.7,54.4,29.26,NW,318,1.6,2.0,67,0.00,,FEW,0.00,VWS V14.00,2013-07-13 14:35:00,
2013-07-13 07:36:00,65.5,54.2,29.26,NW,318,2.0,2.0,67,0.00,,FEW,0.00,VWS V14.00,2013-07-13 14:36:00,
2013-07-13 07:37:00,65.5,54.2,29.26,West,272,0.0,2.0,67,0.00,,FEW,0.00,VWS V14.00,2013-07-13 14:37:00,
2013-07-13 07:38:00,65.3,54.1,29.26,NW,318,0.0,0.0,67,0.00,,FEW,0.00,VWS V14.00,2013-07-13 14:38:00,
2013-07-13 07:39:00,65.3,54.5,29.26,North,2,1.3,1.3,68,0.00,,FEW,0.00,VWS V14.00,2013-07-13 14:39:00,
2013-07-13 07:40:00,65.1,54.3,29.26,NW,318,0.0,1.3,68,0.00,,FEW,0.00,VWS V14.00,2013-07-13 14:40:00,
2013-07-13 07:41:00,65.1,54.3,29.26,NW,318,0.0,0.0,68,0.00,,FEW,0.00,VWS V14.00,2013-07-13 14:41:00,
2013-07-13 07:42:00,65.1,54.3,29.26,NW,318,1.1,1.1,68,0.00,,FEW,0.00,VWS V14.00,2013-07-13 14:42:00,
2013-07-13 07:43:00,65.1,54.3,29.26,NW,318,1.6,1.6,68,0.00,,FEW,0.00,VWS V14.00,2013-07-13 14:43:00,
2013-07-13 07:44:00,65.1,54.3,29.26,NW,318,0.0,1.6,68,0.00,,FEW,0.00,VWS V14.00,2013-07-13 14:44:00,
2013-07-13 07:45:00,64.9,54.1,29.26,West,272,0.0,0.0,68,0.00,,FEW,0.00,VWS V14.00,2013-07-13 14:45:00,
2013-07-13 07:46:00,64.9,54.1,29.26,WNW,295,0.0,0.0,68,0.00,,FEW,0.00,VWS V14.00,2013-07-13 14:46:00,
2013-07-13 07:47:00,64.8,54.0,29.26,WNW,295,1.6,1.6,68,0.00,,FEW,0.00,VWS V14.00,2013-07-13 14:47:00,
2013-07-13 07:48:00,64.8,54.0,29.26,NW,318,1.6,1.6,68,0.00,,FEW,0.00,VWS V14.00,2013-07-13 14:48:00,
2013-07-13 07:49:00,64.6,53.8,29.26,NW,318,2.5,2.5,68,0.00,,FEW,0.00,VWS V14.00,2013-07-13 14:49:00,
2013-07-13 07:50:00,64.6,54.2,29.26,WNW,295,0.0,2.5,69,0.00,,FEW,0.00,VWS V14.00,2013-07-13 14:50:00,
2013-07-13 07:51:00,64.6,54.2,29.26,NW,318,1.6,1.6,69,0.00,,FEW,0.00,VWS V14.00,2013-07-13 14:51:00,
2013-07-13 07:52:00,64.4,54.0,29.26,NW,318,1.1,1.6,69,0.00,,FEW,0.00,VWS V14.00,2013-07-13 14:52:00,
2013-07-13 07:53:00,64.4,54.0,29.26,West,272,0.0,1.1,69,0.00,,FEW,0.00,VWS V14.00,2013-07-13 14:53:00,
2013-07-13 07:54:00,64.4,54.4,29.26,NNW,340,0.0,0.0,70,0.00,,FEW,0.00,VWS V14.00,2013-07-13 14:54:00,
2013-07-13 07:55:00,64.4,54.4,29.26,WNW,295,0.0,0.0,70,0.00,,FEW,0.00,VWS V14.00,2013-07-13 14:55:00,
2013-07-13 07:56:00,64.4,54.4,29.26,WNW,295,0.0,0.0,70,0.00,,FEW,0.00,VWS V14.00,2013-07-13 14:56:00,
2013-07-13 07:57:00,64.4,54.4,29.26,NNW,340,1.1,1.1,70,0.00,,FEW,0.00,VWS V14.00,2013-07-13 14:57:00,
2013-07-13 07:58:00,64.4,54.4,29.26,North,2,0.0,1.1,70,0.00,,FEW,0.00,VWS V14.00,2013-07-13 14:58:00,
2013-07-13 07:59:00,64.4,54.4,29.26,North,2,0.0,0.0,70,0.00,,FEW,0.00,VWS V14.00,2013-07-13 14:59:00,
2013-07-13 08:00:00,64.2,54.6,29.26,North,2,0.0,0.0,71,0.00,,FEW,0.00,VWS V14.00,2013-07-13 15:00:00,
2013-07-13 08:01:00,64.2,54.6,29.26,North,2,1.1,1.1,71,0.00,,FEW,0.00,VWS V14.00,2013-07-13 15:01:00,
2013-07-13 08:02:00,64.0,54.5,29.26,North,2,1.1,1.1,71,0.00,,FEW,0.00,VWS V14.00,2013-07-13 15:02:00,
2013-07-13 08:03:00,64.0,54.5,29.26,North,2,0.0,1.1,71,0.00,,FEW,0.00,VWS V14.00,2013-07-13 15:03:00,
2013-07-13 08:04:00,64.0,54.5,29.26,North,2,0.0,0.0,71,0.00,,FEW,0.00,VWS V14.00,2013-07-13 15:04:00,
2013-07-13 08:05:00,63.9,54.3,29.26,North,2,1.1,1.1,71,0.00,,FEW,0.00,VWS V14.00,2013-07-13 15:05:00,
2013-07-13 08:06:00,63.9,54.3,29.26,North,2,0.0,1.1,71,0.00,,FEW,0.00,VWS V14.00,2013-07-13 15:06:00,
2013-07-13 08:07:00,63.9,54.3,29.26,North,2,0.0,0.0,71,0.00,,FEW,0.00,VWS V14.00,2013-07-13 15:07:00,
2013-07-13 08:08:00,63.9,54.3,29.26,North,2,0.9,0.9,71,0.00,,FEW,0.00,VWS V14.00,2013-07-13 15:08:00,
2013-07-13 08:09:00,63.9,54.7,29.26,North,2,0.0,0.9,72,0.00,,FEW,0.00,VWS V14.00,2013-07-13 15:09:00,
2013-07-13 08:10:00,63.7,54.5,29.26,North,2,0.0,0.0,72,0.00,,FEW,0.00,VWS V14.00,2013-07-13 15:10:00,
2013-07-13 08:11:00,63.7,54.5,29.26,North,2,0.0,0.0,72,0.00,,FEW,0.00,VWS V14.00,2013-07-13 15:11:00,
2013-07-13 08:12:00,63.7,54.5,29.26,North,2,0.0,0.0,72,0.00,,FEW,0.00,VWS V14.00,2013-07-13 15:12:00,
2013-07-13 08:13:00,63.7,54.5,29.26,North,2,0.0,0.0,72,0.00,,FEW,0.00,VWS V14.00,2013-07-13 15:13:00,
2013-07-13 08:14:00,63.7,54.5,29.26,North,2,0.0,0.0,72,0.00,,FEW,0.00,VWS V14.00,2013-07-13 15:14:00,
2013-07-13 08:15:00,63.7,54.5,29.26,North,2,0.9,0.9,72,0.00,,FEW,0.00,VWS V14.00,2013-07-13 15:15:00,
2013-07-13 08:16:00,63.7,54.9,29.26,North,2,0.0,0.9,73,0.00,,FEW,0.00,VWS V14.00,2013-07-13 15:16:00,
2013-07-13 08:17:00,63.5,54.7,29.26,North,2,0.0,0.0,73,0.00,,FEW,0.00,VWS V14.00,2013-07-13 15:17:00,
2013-07-13 08:18:00,63.5,54.7,29.26,North,2,0.9,0.9,73,0.00,,FEW,0.00,VWS V14.00,2013-07-13 15:18:00,
2013-07-13 08:19:00,63.5,54.7,29.26,North,2,0.9,0.9,73,0.00,,FEW,0.00,VWS V14.00,2013-07-13 15:19:00,
2013-07-13 08:20:00,63.5,54.7,29.26,North,2,0.9,0.9,73,0.00,,FEW,0.00,VWS V14.00,2013-07-13 15:20:00,
2013-07-13 08:21:00,63.3,54.5,29.26,North,2,0.0,0.9,73,0.00,,FEW,0.00,VWS V14.00,2013-07-13 15:21:00,
2013-07-13 08:22:00,63.3,54.5,29.26,North,2,1.3,1.3,73,0.00,,FEW,0.00,VWS V14.00,2013-07-13 15:22:00,
2013-07-13 08:23:00,63.3,54.5,29.26,North,2,1.3,1.3,73,0.00,,FEW,0.00,VWS V14.00,2013-07-13 15:23:00,
2013-07-13 08:24:00,63.3,54.5,29.26,North,2,1.1,1.3,73,0.00,,FEW,0.00,VWS V14.00,2013-07-13 15:24:00,
2013-07-13 08:25:00,63.1,54.3,29.26,North,2,0.0,1.1,73,0.00,,FEW,0.00,VWS V14.00,2013-07-13 15:25:00,
2013-07-13 08:26:00,63.1,54.7,29.26,North,2,1.1,1.1,74,0.00,,FEW,0.00,VWS V14.00,2013-07-13 15:26:00,
2013-07-13 08:27:00,63.1,54.7,29.26,North,2,0.0,1.1,74,0.00,,FEW,0.00,VWS V14.00,2013-07-13 15:27:00,
2013-07-13 08:28:00,63.1,54.7,29.26,North,2,0.0,0.0,74,0.00,,FEW,0.00,VWS V14.00,2013-07-13 15:28:00,
2013-07-13 08:29:00,63.1,54.7,29.26,North,2,1.6,1.6,74,0.00,,FEW,0.00,VWS V14.00,2013-07-13 15:29:00,
2013-07-13 08:30:00,63.1,54.7,29.26,NW,318,0.0,1.6,74,0.00,,FEW,0.00,VWS V14.00,2013-07-13 15:30:00,
2013-07-13 08:31:00,63.1,55.1,29.26,NW,318,0.0,0.0,75,0.00,,FEW,0.00,VWS V14.00,2013-07-13 15:31:00,
2013-07-13 08:32:00,63.1,55.1,29.26,WNW,295,0.9,0.9,75,0.00,,FEW,0.00,VWS V14.00,2013-07-13 15:32:00,
2013-07-13 08:33:00,63.1,55.1,29.26,WNW,295,0.9,0.9,75,0.00,,FEW,0.00,VWS V14.00,2013-07-13 15:33:00,
2013-07-13 08:34:00,63.1,55.1,29.26,WNW,295,0.0,0.9,75,0.00,,FEW,0.00,VWS V14.00,2013-07-13 15:34:00,
2013-07-13 08:35:00,63.1,55.1,29.26,WNW,295,1.1,1.1,75,0.00,,FEW,0.00,VWS V14.00,2013-07-13 15:35:00,
2013-07-13 08:36:00,63.1,55.1,29.26,NW,318,0.9,1.1,75,0.00,,FEW,0.00,VWS V14.00,2013-07-13 15:36:00,
2013-07-13 08:37:00,63.1,55.1,29.26,NW,318,1.1,1.1,75,0.00,,FEW,0.00,VWS V14.00,2013-07-13 15:37:00,
2013-07-13 08:38:00,63.1,55.1,29.26,NW,318,1.6,1.6,75,0.00,,FEW,0.00,VWS V14.00,2013-07-13 15:38:00,
2013-07-13 08:39:00,63.0,55.3,29.26,NW,318,1.1,1.6,76,0.00,,FEW,0.00,VWS V14.00,2013-07-13 15:39:00,
2013-07-13 08:40:00,63.0,55.3,29.26,NW,318,1.6,1.6,76,0.00,,FEW,0.00,VWS V14.00,2013-07-13 15:40:00,
2013-07-13 08:41:00,63.0,55.3,29.26,NW,318,1.6,1.6,76,0.00,,FEW,0.00,VWS V14.00,2013-07-13 15:41:00,
2013-07-13 08:42:00,63.0,55.3,29.26,NW,318,2.0,2.0,76,0.00,,FEW,0.00,VWS V14.00,2013-07-13 15:42:00,
2013-07-13 08:43:00,62.8,55.1,29.26,NW,318,0.9,2.0,76,0.00,,FEW,0.00,VWS V14.00,2013-07-13 15:43:00,
2013-07-13 08:44:00,62.8,55.1,29.26,NW,318,0.0,0.9,76,0.00,,FEW,0.00,VWS V14.00,2013-07-13 15:44:00,
2013-07-13 08:45:00,62.8,55.5,29.26,NW,318,0.0,0.0,77,0.00,,FEW,0.00,VWS V14.00,2013-07-13 15:45:00,
2013-07-13 08:46:00,62.8,55.5,29.26,NW,318,0.0,0.0,77,0.00,,FEW,0.00,VWS V14.00,2013-07-13 15:46:00,
2013-07-13 08:47:00,62.8,55.5,29.26,NW,318,0.0,0.0,77,0.00,,FEW,0.00,VWS V14.00,2013-07-13 15:47:00,
2013-07-13 08:48:00,62.8,55.5,29.26,NW,318,1.1,1.1,77,0.00,,FEW,0.00,VWS V14.00,2013-07-13 15:48:00,
2013-07-13 08:49:00,62.8,55.5,29.26,NW,318,0.0,1.1,77,0.00,,FEW,0.00,VWS V14.00,2013-07-13 15:49:00,
2013-07-13 08:50:00,62.8,55.8,29.26,NW,318,0.0,0.0,78,0.00,,FEW,0.00,VWS V14.00,2013-07-13 15:50:00,
2013-07-13 08:51:00,62.6,55.7,29.26,NW,318,0.0,0.0,78,0.00,,FEW,0.00,VWS V14.00,2013-07-13 15:51:00,
2013-07-13 08:52:00,62.6,55.7,29.26,WNW,295,0.0,0.0,78,0.00,,FEW,0.00,VWS V14.00,2013-07-13 15:52:00,
2013-07-13 08:53:00,62.6,55.7,29.26,NW,318,0.0,0.0,78,0.00,,FEW,0.00,VWS V14.00,2013-07-13 15:53:00,
2013-07-13 08:54:00,62.6,55.7,29.26,NW,318,0.0,0.0,78,0.00,,FEW,0.00,VWS V14.00,2013-07-13 15:54:00,
2013-07-13 08:55:00,62.6,55.7,29.26,NNW,340,0.0,0.0,78,0.00,,FEW,0.00,VWS V14.00,2013-07-13 15:55:00,
2013-07-13 08:56:00,62.6,56.0,29.26,North,2,0.0,0.0,79,0.00,,FEW,0.00,VWS V14.00,2013-07-13 15:56:00,
2013-07-13 08:57:00,62.6,56.0,29.26,NW,318,0.0,0.0,79,0.00,,FEW,0.00,VWS V14.00,2013-07-13 15:57:00,
2013-07-13 08:58:00,62.6,56.0,29.26,NW,318,0.0,0.0,79,0.00,,FEW,0.00,VWS V14.00,2013-07-13 15:58:00,
2013-07-13 08:59:00,62.6,56.0,29.26,North,2,0.0,0.0,79,0.00,,FEW,0.00,VWS V14.00,2013-07-13 15:59:00,
2013-07-13 09:00:00,62.6,56.0,29.26,NW,318,0.0,0.0,79,0.00,,FEW,0.00,VWS V14.00,2013-07-13 16:00:00,
2013-07-13 09:02:00,62.4,56.2,29.26,NW,318,0.0,0.0,80,0.00,,FEW,0.00,VWS V14.00,2013-07-13 16:02:00,
2013-07-13 09:03:00,62.4,56.2,29.26,NW,318,0.0,0.0,80,0.00,,FEW,0.00,VWS V14.00,2013-07-13 16:03:00,